Total_Precipitation_Accumulation
0.42 0.44 0.45 0.43 0.36 0.33 0.38 0.44 0.50 0.60 0.73 0.94 1.23 1.64 1.85 1.99 2.00 2.02 1.91 1.70 1.49 1.50 1.67 1.64 1.62 1.63 1.62 1.58 1.53 1.67 1.60 1.35 1.27 1.45 1.42 1.28 1.12 1.07 1.05 1.06 1.19 1.27 1.26
0.36 0.33 0.33 0.33 0.28 0.24 0.24 0.34 0.41 0.51 0.65 0.94 1.24 1.57 1.91 1.99 2.00 2.02 1.98 1.85 1.72 1.73 1.77 1.98 2.08 2.06 2.16 2.13 1.95 2.09 2.09 1.72 1.49 1.73 2.02 1.75 1.55 1.17 1.06 1.12 1.14 1.23 1.37
0.31 0.30 0.29 0.27 0.25 0.21 0.19 0.25 0.31 0.45 0.75 1.09 1.41 1.60 1.88 1.98 2.03 1.99 2.01 2.03 1.98 1.89 1.90 2.02 2.19 2.21 2.28 2.37 2.44 2.39 2.48 2.26 1.88 1.78 2.05 1.93 1.79 1.61 1.22 1.13 1.22 1.36 1.45
0.29 0.28 0.30 0.27 0.21 0.18 0.17 0.20 0.27 0.47 0.81 1.15 1.41 1.65 2.00 2.10 2.06 2.09 2.08 2.09 2.11 2.07 2.15 2.17 2.28 2.31 2.33 2.42 2.52 2.49 2.63 2.67 2.28 2.02 1.81 1.63 1.64 1.75 1.51 1.27 1.24 1.42 1.47
0.27 0.25 0.25 0.24 0.22 0.20 0.20 0.24 0.40 0.59 0.85 1.05 1.31 1.67 1.93 2.05 2.18 2.11 2.09 2.10 2.16 2.18 2.22 2.28 2.45 2.44 2.42 2.39 2.60 2.65 2.74 2.66 2.57 2.43 2.26 2.10 1.86 1.52 1.58 1.60 1.45 1.38 1.31
0.27 0.27 0.26 0.25 0.26 0.27 0.31 0.38 0.53 0.68 0.91 1.09 1.29 1.49 1.75 1.88 2.01 2.11 2.05 2.05 2.12 2.22 2.12 2.03 2.17 2.24 2.27 2.26 2.45 2.62 2.75 2.73 2.76 2.67 2.38 2.32 2.18 1.84 1.77 1.63 1.52 1.53 1.36
0.33 0.37 0.38 0.42 0.48 0.51 0.53 0.61 0.70 0.81 0.93 1.03 1.14 1.23 1.40 1.55 1.58 1.75 1.84 1.97 1.98 2.05 2.09 1.97 1.96 1.99 1.94 1.99 2.11 2.17 2.24 2.39 2.54 2.45 2.24 2.20 2.05 2.03 2.03 1.91 1.67 1.50 1.30
0.49 0.59 0.66 0.75 0.82 0.81 0.80 0.87 0.92 0.90 0.89 0.94 1.01 1.05 1.13 1.22 1.28 1.31 1.34 1.52 1.69 1.73 1.82 1.81 1.76 1.80 1.84 1.85 1.93 1.94 1.95 1.98 2.05 2.05 2.14 2.20 2.07 1.99 1.92 1.94 2.08 1.83 1.60
0.78 0.87 0.96 0.98 0.98 0.95 0.91 0.92 0.95 0.92 0.90 0.90 0.90 0.86 0.86 0.93 1.04 1.06 1.12 1.18 1.27 1.28 1.35 1.45 1.52 1.61 1.66 1.72 1.86 1.93 1.92 1.88 1.85 1.96 2.03 1.98 1.96 1.93 1.83 1.81 1.94 2.01 1.86
1.13 1.25 1.34 1.24 1.15 1.15 1.20 1.09 0.99 0.91 0.87 0.87 0.87 0.80 0.77 0.83 0.87 0.87 0.92 0.91 0.92 0.94 1.00 1.11 1.28 1.50 1.63 1.67 1.74 1.79 1.87 1.91 1.86 1.94 2.04 2.06 2.06 2.08 2.01 1.88 1.86 1.80 1.83
1.53 1.63 1.63 1.53 1.32 1.19 1.18 1.12 1.00 0.87 0.76 0.75 0.80 0.80 0.75 0.77 0.82 0.81 0.76 0.69 0.72 0.79 0.91 0.95 1.09 1.25 1.43 1.61 1.76 1.78 1.78 1.81 1.80 1.74 1.83 1.95 2.05 2.17 2.19 2.18 2.06 1.91 1.86
1.40 1.45 1.40 1.38 1.27 1.17 1.08 1.04 0.92 0.77 0.71 0.74 0.77 0.78 0.70 0.65 0.69 0.71 0.73 0.63 0.58 0.62 0.72 0.85 1.05 1.16 1.25 1.30 1.38 1.46 1.51 1.54 1.58 1.57 1.55 1.63 1.74 1.90 2.05 2.14 2.08 2.06 1.96
1.07 1.17 1.22 1.11 1.07 1.00 0.95 1.02 1.03 0.90 0.87 0.89 0.94 0.86 0.73 0.68 0.67 0.65 0.69 0.64 0.60 0.62 0.67 0.80 0.96 1.01 1.06 1.10 1.12 1.23 1.32 1.33 1.31 1.36 1.33 1.35 1.45 1.59 1.73 1.82 1.89 2.00 2.04
0.89 0.92 0.98 0.94 0.95 0.89 0.87 0.97 1.01 1.01 1.08 1.14 1.10 0.93 0.79 0.72 0.66 0.62 0.61 0.62 0.63 0.65 0.70 0.86 0.94 0.95 0.91 1.00 1.03 1.09 1.13 1.10 1.05 1.08 1.10 1.14 1.19 1.27 1.39 1.54 1.75 1.94 2.05
0.68 0.65 0.61 0.62 0.68 0.69 0.66 0.71 0.79 0.89 1.03 1.10 0.99 0.84 0.71 0.60 0.56 0.58 0.55 0.59 0.65 0.67 0.72 0.77 0.88 0.92 0.90 0.93 1.00 0.99 0.94 0.93 0.92 0.88 0.79 0.81 0.88 0.89 0.98 1.03 1.32 1.57 1.80
0.43 0.41 0.37 0.35 0.39 0.38 0.41 0.45 0.54 0.69 0.90 0.98 0.85 0.68 0.60 0.57 0.52 0.51 0.48 0.47 0.50 0.56 0.60 0.65 0.81 0.92 0.82 0.94 0.94 0.86 0.79 0.76 0.80 0.77 0.70 0.68 0.72 0.63 0.61 0.64 0.86 1.16 1.36
0.33 0.32 0.31 0.27 0.27 0.28 0.31 0.39 0.45 0.58 0.68 0.71 0.66 0.53 0.47 0.44 0.42 0.41 0.41 0.42 0.44 0.48 0.54 0.57 0.73 0.83 0.91 0.86 0.71 0.75 0.74 0.75 0.77 0.79 0.81 0.74 0.70 0.77 0.69 0.63 0.70 0.78 0.90
0.28 0.27 0.28 0.28 0.30 0.34 0.37 0.47 0.51 0.51 0.54 0.61 0.62 0.52 0.45 0.41 0.39 0.37 0.37 0.45 0.46 0.45 0.50 0.55 0.59 0.67 0.80 0.74 0.60 0.65 0.64 0.75 0.82 0.85 0.93 0.94 0.88 0.86 0.93 0.89 0.89 0.86 0.79
0.17 0.17 0.18 0.17 0.19 0.22 0.25 0.29 0.30 0.32 0.34 0.39 0.45 0.41 0.34 0.35 0.38 0.36 0.41 0.44 0.45 0.49 0.51 0.55 0.58 0.64 0.69 0.65 0.58 0.62 0.68 0.81 0.83 0.79 0.90 0.94 0.89 0.93 0.99 1.12 1.18 1.10 0.95
0.08 0.07 0.08 0.08 0.08 0.08 0.12 0.16 0.14 0.11 0.13 0.16 0.21 0.23 0.23 0.26 0.31 0.40 0.46 0.44 0.42 0.48 0.49 0.49 0.48 0.53 0.55 0.60 0.52 0.63 0.74 0.79 0.81 0.81 0.87 1.02 0.94 0.91 0.89 0.98 1.12 1.11 0.98
0.06 0.04 0.04 0.06 0.06 0.06 0.07 0.10 0.10 0.07 0.06 0.07 0.10 0.11 0.14 0.20 0.29 0.36 0.35 0.35 0.38 0.41 0.42 0.45 0.45 0.46 0.53 0.64 0.65 0.71 0.73 0.78 0.84 0.93 0.98 0.96 1.04 0.87 0.84 0.85 0.87 0.95 0.95
0.05 0.04 0.04 0.05 0.05 0.05 0.05 0.07 0.08 0.07 0.07 0.06 0.06 0.07 0.08 0.11 0.16 0.23 0.26 0.28 0.32 0.34 0.33 0.34 0.35 0.39 0.50 0.58 0.60 0.63 0.68 0.76 0.77 0.82 0.83 0.79 0.87 0.73 0.65 0.61 0.67 0.75 0.80
0.04 0.04 0.05 0.05 0.04 0.04 0.05 0.05 0.07 0.09 0.09 0.06 0.05 0.05 0.06 0.07 0.10 0.15 0.20 0.23 0.29 0.31 0.29 0.28 0.29 0.33 0.38 0.45 0.49 0.49 0.49 0.52 0.56 0.54 0.63 0.64 0.63 0.58 0.52 0.57 0.61 0.63 0.66
0.04 0.06 0.08 0.07 0.05 0.04 0.06 0.06 0.07 0.08 0.09 0.07 0.06 0.05 0.06 0.06 0.07 0.09 0.15 0.23 0.26 0.24 0.25 0.27 0.29 0.32 0.35 0.36 0.37 0.41 0.41 0.41 0.46 0.45 0.48 0.48 0.48 0.49 0.51 0.54 0.58 0.64 0.68
0.03 0.05 0.07 0.08 0.07 0.05 0.05 0.06 0.06 0.07 0.08 0.07 0.05 0.06 0.05 0.06 0.05 0.04 0.08 0.15 0.18 0.17 0.19 0.24 0.29 0.34 0.36 0.33 0.30 0.31 0.37 0.43 0.48 0.55 0.50 0.47 0.48 0.50 0.57 0.59 0.59 0.63 0.67
0.03 0.03 0.04 0.06 0.07 0.07 0.05 0.05 0.06 0.06 0.07 0.08 0.06 0.06 0.06 0.06 0.05 0.05 0.06 0.08 0.09 0.10 0.10 0.12 0.16 0.15 0.15 0.16 0.16 0.19 0.24 0.32 0.39 0.54 0.61 0.64 0.69 0.72 0.71 0.69 0.61 0.56 0.57